Location: Capelle
(50.3413°N, 1.9974°E)
Time: 23:54:11
(UTC+00:00)

PSLV R/B - Pass Details

Date: 12 January 2026
Orbit: 560 x 588 km, 98.0° (Epoch: 9 February)

Event Time Altitude Azimuth Distance (km) Brightness Sun altitude
Rises 17:50:25 0° 147° (SSE) 2,799 6.8 -14.9°
Reaches altitude 10° 17:52:37 10° 142° (SE) 1,907 5.8 -15.2°
Maximum altitude 17:56:34 45° 69° (ENE) 805 3.7 -15.8°
Drops below altitude 10° 18:00:34 10° 357° (N) 1,929 6.0 -16.4°
Sets 18:02:47 0° 351° (N) 2,835 6.9 -16.8°
